TimeEST,TemperatureF,Dew PointF,Humidity,Sea Level PressureIn,VisibilityMPH,Wind Direction,Wind SpeedMPH,Gust SpeedMPH,PrecipitationIn,Events,Conditions,WindDirDegrees,DateUTC
12:53 AM,24.1,9.0,53,29.96,10.0,WNW,10.4,-,N/A,,Clear,300,2014-02-26 05:53:00
1:53 AM,21.9,7.0,53,29.94,10.0,WNW,6.9,-,N/A,,Clear,290,2014-02-26 06:53:00
2:53 AM,21.9,7.0,53,29.94,10.0,NW,6.9,-,N/A,,Clear,310,2014-02-26 07:53:00
3:53 AM,21.9,8.1,55,29.94,10.0,West,4.6,-,N/A,,Clear,280,2014-02-26 08:53:00
4:53 AM,21.9,9.0,58,29.93,10.0,Calm,Calm,-,N/A,,Clear,0,2014-02-26 09:53:00
5:53 AM,21.9,10.0,60,29.93,10.0,WNW,4.6,-,N/A,,Clear,300,2014-02-26 10:53:00
6:53 AM,23.0,9.0,55,29.90,10.0,North,3.5,-,N/A,,Partly Cloudy,350,2014-02-26 11:53:00
7:53 AM,25.0,10.0,53,29.91,10.0,Calm,Calm,-,N/A,,Overcast,0,2014-02-26 12:53:00
8:53 AM,26.1,10.0,51,29.90,10.0,SW,5.8,-,N/A,,Mostly Cloudy,220,2014-02-26 13:53:00
9:53 AM,27.0,10.0,49,29.90,10.0,SW,8.1,-,N/A,,Overcast,230,2014-02-26 14:53:00
10:53 AM,28.9,12.9,51,29.89,10.0,SW,17.3,-,N/A,,Overcast,230,2014-02-26 15:53:00
11:08 AM,28.4,15.8,59,29.90,4.0,SW,13.8,-,0.00,Snow,Light Snow,230,2014-02-26 16:08:00
11:48 AM,28.4,19.4,69,29.88,0.5,West,12.7,-,0.00,Snow,Snow,260,2014-02-26 16:48:00
11:53 AM,27.0,19.0,72,29.88,0.5,West,11.5,-,0.00,Snow,Snow,260,2014-02-26 16:53:00
12:02 PM,26.6,19.4,74,29.87,0.2,West,16.1,-,0.00,Snow,Heavy Snow,270,2014-02-26 17:02:00
12:15 PM,26.6,19.4,74,29.86,0.5,West,17.3,24.2,0.00,Snow,Snow,280,2014-02-26 17:15:00
12:53 PM,27.0,21.0,78,29.84,1.2,West,16.1,24.2,0.00,Snow,Light Snow,280,2014-02-26 17:53:00
1:10 PM,26.6,21.2,80,29.83,1.2,West,13.8,20.7,0.00,Snow,Light Snow,270,2014-02-26 18:10:00
1:46 PM,26.6,21.2,80,29.82,3.0,West,12.7,-,0.00,Snow,Light Snow,270,2014-02-26 18:46:00
1:53 PM,28.0,23.0,81,29.82,3.0,West,10.4,19.6,0.00,Snow,Light Snow,280,2014-02-26 18:53:00
2:00 PM,28.4,23.0,80,29.81,5.0,West,11.5,-,0.00,,Haze,280,2014-02-26 19:00:00
2:21 PM,28.4,24.8,86,29.81,10.0,WSW,15.0,20.7,0.00,,Scattered Clouds,250,2014-02-26 19:21:00
2:53 PM,30.9,21.9,69,29.80,10.0,West,16.1,23.0,0.00,,Scattered Clouds,280,2014-02-26 19:53:00
3:53 PM,30.0,18.0,61,29.78,10.0,West,19.6,24.2,N/A,,Scattered Clouds,270,2014-02-26 20:53:00
4:53 PM,28.0,18.0,66,29.79,10.0,West,13.8,-,N/A,,Partly Cloudy,270,2014-02-26 21:53:00
5:53 PM,27.0,16.0,63,29.78,10.0,West,9.2,-,N/A,,Clear,280,2014-02-26 22:53:00
6:53 PM,27.0,16.0,63,29.79,10.0,NW,3.5,-,N/A,,Scattered Clouds,310,2014-02-26 23:53:00
7:53 PM,26.1,12.9,58,29.79,10.0,NW,4.6,-,N/A,,Clear,310,2014-02-27 00:53:00
8:53 PM,27.0,12.9,56,29.82,10.0,North,13.8,-,N/A,,Overcast,350,2014-02-27 01:53:00
9:53 PM,25.0,10.0,53,29.83,10.0,NNW,13.8,-,N/A,,Clear,330,2014-02-27 02:53:00
10:53 PM,23.0,6.1,48,29.83,10.0,NNW,15.0,-,N/A,,Clear,330,2014-02-27 03:53:00
11:53 PM,21.9,1.9,42,29.84,10.0,NNW,13.8,23.0,N/A,,Clear,340,2014-02-27 04:53:00